Location: Briarstone Lake
(43.1454°N, 93.2359°W)
Time: 01:13:06
(UTC+00:00)

BlueWalker 3 - Pass Details

Date: 24 January 2026
Orbit: 450 x 461 km, 53.2° (Epoch: 7 February)

Event Time Altitude Azimuth Distance (km) Brightness Sun altitude
Rises 01:36:38 0° 268° (W) 2,452 6.8 -25.9°
Reaches altitude 10° 01:39:01 10° 282° (WNW) 1,581 5.4 -26.4°
Enters shadow 01:41:01 22° 313° (NW) 1,045 3.9 -26.7°
